Regional Weather Roundup
Issued by NWS

Home | Current Version | Previous Version | Text Only | Print | Product List | Glossary On
Versions: 1 2 3 4 5 6 7 8 9 10 11 12 13 14 15 16 17 18 19 20 21 22 23 24 25 26 27 28 29 30 31 32 33 34 35 36 37 38 39 40 41 42 43 44 45 46 47 48 49 50
000
ASUS44 KFWD 221510
RWRTX
NORTH TEXAS HOURLY WEATHER ROUNDUP
NATIONAL WEATHER SERVICE FORT WORTH TX
1000 AM CDT TUE MAY 22 2018

NOTE: "FAIR" INDICATES FEW OR NO CLOUDS BELOW 12,000 FEET WITH NO
SIGNIFICANT WEATHER AND/OR OBSTRUCTIONS TO VISIBILITY.

TXZ118-119-221600-
DALLAS/FORT WORTH METROPLEX

CITY           SKY/WX    TMP DP  RH WIND       PRES   REMARKS
DFW AIRPORT    PTSUNNY   78  69  73 SW10      30.03R
DALLAS LOVE    PTSUNNY   80  69  69 W5        30.04R
FTW MEACHAM    FAIR      77  69  76 SW9       30.05R
DAL-EXECUTIVE  FAIR      79  70  74 S8        30.03S
FTW-ALLIANCE   PTSUNNY   78  69  73 S7        30.04R
FTW-NAS-JRB    PTSUNNY   76  66  71 SW8       30.05R
FTW-SPINKS     PTSUNNY   75  70  83 SW5       30.07R
ARLINGTON      PTSUNNY   74  70  87 S7        30.05R
GRAND PRAIRIE  PTSUNNY   77  66  69 SW10      30.06R
ADDISON        MOSUNNY   79  68  69 S5        30.05R
MESQUITE       PTSUNNY   79  70  73 S6        30.04S
LANCASTER      FAIR      77  70  80 S7        30.05S
$$

TXZ091>094-102>105-117-120-121-131>134-221600-
NORTH CENTRAL TEXAS

CITY           SKY/WX    TMP DP  RH WIND       PRES   REMARKS
SHRMAN/DENISON FAIR      79  67  67 SW3       30.06R
GAINESVILLE    FAIR      77  69  76 CALM      30.07R
BOWIE          FAIR      74  69  83 S3        30.05S
BRIDGEPORT     FAIR      77  66  69 SW3       30.06S
DECATUR        FAIR      76  67  74 CALM      30.05S
DENTON         FAIR      78  67  68 SW7       30.04R
MCKINNEY       FAIR      79  69  71 S6        30.04R
BONHAM         FAIR      79  68  70 S3        30.05R
GREENVILLE     FAIR      81  68  65 CALM      30.06R
ROCKWALL       FAIR      78  69  72 SW6       30.05S
TERRELL        FAIR      80  69  69 S7        30.05R
WAXAHACHIE     PTSUNNY   77  72  84 S8        30.05S
CLEBURNE       CLOUDY    73  72  94 S7        30.07S
GRANBURY       CLOUDY    76  67  74 S7        30.06S
$$

TXZ083>090-098>101-113>116-127>130-139>142-154-155-221600-
WESTERN NORTH TEXAS

CITY           SKY/WX    TMP DP  RH WIND       PRES   REMARKS
WICHITA FALLS  FAIR      77  67  71 VRB5      30.02S
WF-KICKAPOO    FAIR      76  69  77 SE7       30.05S
VERNON         FAIR      78  69  73 S6        30.03S
ABILENE        FAIR      73  67  81 S8        30.05S
ABILENE-DYESS  FAIR      78  63  59 SE8       30.04S
GRAHAM           N/A     77  69  75 S5        30.02F
BRECKENRIDGE   FAIR      77  66  68 S5        30.04F
CISCO          PTSUNNY   72  66  83 S12       30.07R
EASTLAND       FAIR      74  66  77 SW9       30.06R
MINERAL WELLS  FAIR      74  66  76 S5        30.03F
STEPHENVILLE   CLOUDY    71  66  83 S6        30.09R
COMANCHE       CLOUDY    73  68  83 S7        30.07S
BROWNWOOD      PTSUNNY   75  66  73 S6        30.06F
COLEMAN        FAIR      75  64  67 SW7       30.07R
BRADY          PTSUNNY   75  64  69 S13G20    30.07S
$$

TXZ143>147-156>162-174-175-221600-
CENTRAL TEXAS

CITY           SKY/WX    TMP DP  RH WIND       PRES   REMARKS
WACO           CLOUDY    75  69  81 S5        30.05R
WACO-TSTC      MOSUNNY   77  70  78 S8        30.06
WACO-MCGREGOR  CLOUDY    73  70  90 SE6       30.06R
HILLSBORO      CLOUDY    74  72  93 S7        30.05R
CORSICANA      FAIR      77  69  76 W3        30.06R
MEXIA          FAIR      77  70  78 S6        30.04S
HEARNE         CLOUDY    73  73  98 S3        30.05S
CAMERON        FOG       72  71  97 CALM      30.06R VSB 3/4
TEMPLE         CLOUDY    72  72 100 S6        30.06S
KILLEEN        CLOUDY    76  68  75 S8        30.05R
KILLEEN-SKYLRK FAIR      79  71  76 SW5       30.06R
FORT HOOD      PTSUNNY   77  68  73 SW10      30.02S
GATESVILLE     PTSUNNY   75  68  78 S8        30.07S
HAMILTON       PTSUNNY   76  69  77 SW13      30.07S
LAMPASAS       CLOUDY    74  67  79 SW8       30.05S
$$

TXZ095>097-106>112-122>126-135>138-148>153-164>167-221600-
EAST TEXAS

CITY           SKY/WX    TMP DP  RH WIND       PRES   REMARKS
PARIS          FAIR      79  70  74 N5        30.06S
SULPHUR SPRNGS FAIR      79  70  73 CALM      30.07S
MOUNT PLEASANT FAIR      79  71  77 CALM      30.07S
GILMER         FAIR      79  69  71 CALM      30.05S
MINEOLA        FAIR      79  66  65 SW5       30.05S
TYLER          FAIR      78  71  79 CALM      30.05R
LONGVIEW       FAIR      80  72  76 CALM      30.05R
MARSHALL       FAIR      78  67  68 CALM      30.07S
ATHENS         FAIR      79  70  73 SW5       30.04S
PALESTINE      FAIR      77  70  79 S3        30.06S
JACKSONVILLE   FAIR      76  73  90 CALM      30.08S
HENDERSON      FAIR      77  71  80 CALM      30.07S
CENTER         FAIR      77  70  77 MISG      30.07R
NACOGDOCHES      N/A     77  73  87 CALM      30.06S
LUFKIN         FAIR      79  73  82 VRB3      30.05R
$$

SUPPLEMENTAL OBSERVATIONS (NWS FORT WORTH AREA)

CITY           SKY/WX    TMP DP  RH WIND       PRES   REMARKS
CADDO GRASSLND   N/A     81  70  69 S3          N/A
LBJ GRASSLAND    N/A     75  66  73 S5          N/A
POSSUM KINGDOM   N/A     81  68  65 S5          N/A
GRANBURY         N/A     75  66  73 SW7         N/A
MCGREGOR         N/A     75  70  83 S7          N/A
TEMPLE           N/A     75  70  83 S5          N/A
PALESTINE        N/A     81  70  69 S1          N/A
$$

SUPPLEMENTAL OBSERVATIONS (NWS NORMAN AREA)

CITY           SKY/WX    TMP DP  RH WIND       PRES   REMARKS
MILLERS CREEK    N/A     79  68  69 S9          N/A
$$

SUPPLEMENTAL OBSERVATIONS (NWS SAN ANGELO AREA)

CITY           SKY/WX    TMP DP  RH WIND       PRES   REMARKS
HAMBY            N/A     77  66  69 S10         N/A
COLORADO BEND    N/A     75  64  69 SW8         N/A
$$

SUPPLEMENTAL OBSERVATIONS (NWS SHREVEPORT AREA)

CITY           SKY/WX    TMP DP  RH WIND       PRES   REMARKS
TEXARKANA        N/A     82  68  61 NW3         N/A
LUFKIN           N/A     79  72  78 MISG        N/A
N SABINE NF      N/A     84  72  65 MISG        N/A
$$

SUPPLEMENTAL OBSERVATIONS ARE A COLLECTION OF AUTOMATED INSTRUMENTS
THAT ARE MAINTAINED BY A VARIETY OF FEDERAL AND STATE AGENCIES.
CERTAIN ELEMENTS...SUCH AS HUMIDITY VALUES AND SUSTAINED WIND
SPEEDS...MAY BE APPROXIMATED.





USA.gov is the U.S. government's official web portal to all federal, state and local government web resources and services.